Temperature
30 31 31 32 32 31 31 31 31 31 31 31 30 30 30 28 27 27 26 25 24 24 23 22 21 20 20 19 19 19 19 19 19 19 19 18 18 18 18 18 18 18 18 18
30 31 32 32 31 31 31 31 31 31 31 30 30 30 30 29 28 27 26 26 25 24 23 22 21 21 20 20 19 19 19 19 19 19 19 19 18 18 18 18 18 18 18 18
31 32 32 31 31 31 31 31 31 31 31 31 30 30 30 30 28 27 27 26 26 25 24 22 22 21 20 20 20 20 19 19 19 19 19 19 19 18 18 18 18 18 18 18
31 32 31 31 31 31 31 32 31 31 31 31 31 30 30 30 29 28 27 27 26 25 24 23 22 21 21 20 20 20 20 20 19 19 19 19 19 19 19 18 18 18 18 18
31 31 31 31 31 31 31 31 31 31 31 31 31 31 31 31 30 29 29 27 27 26 25 23 23 22 21 21 20 20 20 20 20 19 19 19 19 19 19 18 18 18 18 18
31 31 31 31 32 31 31 31 31 31 31 30 31 31 31 31 30 30 30 28 27 26 25 24 23 22 22 21 21 20 20 20 20 20 19 19 19 19 19 18 18 18 18 18
30 30 31 31 31 31 31 31 30 30 30 30 31 30 31 31 31 31 30 28 27 26 25 24 23 22 22 21 21 20 20 20 20 20 19 19 19 19 19 18 18 18 18 18
29 30 31 31 31 31 31 31 30 29 30 31 30 30 31 31 30 29 29 28 27 26 25 24 23 22 22 21 21 21 20 20 20 20 20 19 19 19 19 19 18 18 18 18
30 30 31 31 31 31 31 31 32 31 31 30 31 31 31 31 30 30 29 28 27 26 25 24 24 23 22 22 21 21 21 20 20 20 20 19 19 19 19 19 18 18 18 18
30 29 30 30 30 30 31 31 31 31 29 29 30 30 31 30 30 30 29 28 27 26 25 24 24 23 23 22 22 21 21 21 21 20 20 19 19 19 19 19 19 18 18 18
30 29 30 30 30 30 30 30 30 31 30 30 30 30 31 30 30 30 29 27 27 26 25 24 24 23 23 22 22 21 21 21 20 20 20 20 19 19 19 19 19 18 18 18
29 30 29 30 30 30 31 30 30 30 29 30 30 30 31 30 30 29 28 27 26 26 25 24 24 23 23 22 22 21 21 21 20 20 20 20 20 19 19 19 19 19 18 18
28 29 28 29 29 29 30 30 30 31 30 30 30 30 30 30 29 28 27 26 25 25 24 24 24 23 22 22 22 21 21 20 20 20 20 20 19 19 19 19 19 18 18 18
27 28 28 29 29 30 29 30 30 30 30 30 30 30 30 29 29 28 26 25 25 24 24 24 23 22 22 22 21 21 21 20 20 20 20 20 19 19 19 19 19 18 18 18
27 28 28 29 30 30 30 29 29 29 30 30 30 30 30 29 28 27 26 25 24 24 23 23 23 22 22 21 21 21 20 20 20 20 20 19 19 19 19 19 19 18 18 17
26 27 27 28 29 29 29 29 29 29 29 30 30 29 30 28 27 26 25 24 24 23 23 22 22 21 21 21 20 20 20 20 20 20 19 19 19 19 19 18 18 18 18 17
26 26 26 28 28 28 28 29 29 29 29 29 29 29 28 27 26 25 25 24 23 23 23 22 21 21 21 20 20 20 20 20 20 20 19 19 19 19 18 18 18 18 18 17
24 25 26 27 27 26 28 29 29 28 28 28 28 28 27 26 25 24 23 23 23 22 22 21 21 21 20 20 20 20 19 19 19 19 19 19 19 18 18 18 18 17 17 17
24 24 26 27 27 27 27 27 28 27 27 27 27 27 26 25 25 24 23 22 22 22 21 21 20 20 20 20 19 19 19 19 19 19 19 18 18 18 18 18 17 17 17 17
23 23 25 26 26 26 27 27 26 27 26 27 26 26 25 25 26 25 22 21 21 20 20 20 20 20 19 19 19 19 19 18 18 18 18 18 18 18 17 17 17 17 17 16
23 23 24 25 25 27 26 26 26 25 25 25 24 24 23 24 24 22 21 20 20 19 19 19 19 19 19 18 18 18 18 18 18 18 17 17 17 17 17 17 17 16 16 16
24 24 24 25 25 25 24 25 25 24 23 23 23 23 22 22 21 20 20 19 19 19 19 18 18 18 18 18 18 17 18 17 17 17 17 17 17 16 16 16 16 16 16 15
23 24 25 25 25 23 22 23 22 21 21 21 21 21 21 20 20 19 19 18 18 18 18 18 17 17 17 17 17 17 17 17 17 16 16 16 16 16 16 16 16 15 15 15
22 21 22 22 23 22 21 21 20 20 20 20 20 20 20 20 19 19 18 18 18 17 17 17 17 17 16 16 16 16 16 16 16 16 16 15 15 15 15 15 15 15 15 15
21 21 21 21 22 21 20 20 19 19 19 19 19 19 19 19 19 18 17 17 17 16 16 16 16 16 16 16 16 16 16 16 15 15 15 15 15 15 15 15 14 14 14 14
21 21 21 21 20 20 20 19 18 18 18 18 18 19 18 18 18 17 17 16 16 16 16 16 16 15 15 16 16 16 16 15 15 15 15 15 15 14 14 14 14 14 14 14
Wind_Speed
8 9 8 5 4 4 4 4 3 1 1 3 4 4 5 9 10 9 9 10 10 10 11 11 11 10 9 8 8 7 6 6 5 4 4 3 3 3 2 2 2 2 1 2
9 11 7 5 5 6 6 6 3 1 0 3 4 4 4 9 11 10 10 10 11 11 12 12 11 11 10 10 9 8 8 7 6 5 4 3 2 2 2 2 2 2 2 2
13 6 5 7 7 8 8 7 5 4 3 5 4 4 5 8 10 10 10 10 11 12 13 13 13 12 11 10 10 8 8 8 7 6 5 4 3 3 3 3 3 2 2 2
12 8 7 9 9 9 8 4 5 5 6 3 5 3 4 7 9 11 12 11 11 12 12 13 13 13 12 11 10 9 8 8 7 7 6 6 5 4 3 3 2 2 2 2
10 9 10 11 9 8 5 3 5 6 7 7 6 6 2 6 7 10 11 12 12 12 13 13 13 13 12 11 10 10 9 9 8 8 7 7 6 4 4 3 3 3 2 2
10 8 9 9 7 6 4 5 6 8 8 8 5 6 3 3 5 6 9 11 12 12 12 12 12 12 11 11 10 10 10 9 9 9 8 8 6 5 4 4 4 4 3 2
11 10 8 7 8 9 9 8 6 7 7 6 3 6 3 1 2 4 6 9 11 11 12 13 13 13 12 12 11 10 10 10 9 9 9 8 8 7 6 5 4 4 3 2
12 12 11 9 10 8 11 12 8 7 7 5 5 5 2 1 1 3 4 7 10 11 11 12 13 13 12 12 12 11 11 10 10 9 9 8 8 7 5 5 4 4 3 2
10 10 8 8 8 9 10 11 10 10 9 7 5 4 4 3 3 4 5 7 9 9 10 10 11 12 12 12 12 12 11 10 10 9 9 8 8 7 5 5 5 4 3 3
7 8 8 7 7 8 9 8 8 9 8 9 7 7 4 3 4 5 6 7 8 9 9 10 9 10 10 11 11 11 11 10 10 9 9 8 8 8 7 6 5 4 4 3
10 9 9 9 10 10 9 9 8 8 9 9 7 3 1 2 3 4 5 6 7 8 9 9 8 9 9 9 10 10 10 10 9 9 9 8 8 8 7 7 6 6 5 4
10 9 10 11 7 6 10 11 11 10 8 9 9 4 2 1 2 2 3 5 6 7 8 8 8 8 8 8 9 10 10 10 9 9 9 8 8 7 8 7 7 6 5 5
7 9 11 11 10 8 10 11 11 11 10 10 11 5 3 2 1 1 2 3 5 6 7 7 8 8 7 7 8 9 9 10 10 9 9 8 8 8 8 7 6 6 5 5
7 10 12 13 9 9 11 12 12 13 12 12 12 10 4 2 2 1 2 3 4 5 6 6 7 7 7 7 7 7 8 9 9 9 9 8 8 8 7 7 6 6 6 6
7 11 12 12 9 9 11 13 13 15 15 14 11 10 8 5 4 3 3 3 4 5 5 6 6 6 6 6 6 7 7 8 8 9 8 8 8 7 7 7 7 6 6 6
6 8 10 12 11 11 12 13 13 14 14 14 13 11 5 3 2 3 3 4 5 5 6 6 5 5 6 6 7 7 7 7 8 8 8 7 7 7 7 7 6 6 6 5
6 8 10 12 11 12 14 13 12 11 11 11 12 9 4 4 4 4 4 4 4 5 5 6 6 5 5 6 7 7 7 7 8 8 7 6 6 6 6 6 6 6 6 5
8 9 9 10 10 15 8 5 8 10 9 8 8 6 5 4 3 3 3 4 4 5 5 5 5 5 4 5 6 6 6 7 7 7 6 6 6 6 5 5 5 5 5 5
10 9 9 11 14 13 8 5 6 8 9 7 7 6 4 3 5 4 2 3 3 4 3 4 4 4 3 4 4 6 6 6 6 6 5 6 5 5 5 5 5 4 4 4
9 9 10 11 13 14 8 4 4 7 9 4 4 5 4 5 7 4 2 2 2 1 2 2 3 3 3 3 4 6 6 6 6 5 5 5 5 5 5 5 4 3 3 3
11 10 13 14 13 10 2 2 5 9 4 1 2 3 4 5 5 1 1 1 1 2 2 2 3 3 3 3 5 5 5 5 5 4 5 5 5 5 5 4 3 4 3 3
11 10 12 12 14 9 2 3 5 2 3 2 2 3 3 2 1 1 2 2 2 3 3 4 4 3 3 4 5 5 5 5 5 5 5 5 4 4 4 4 4 3 3 4
7 6 6 7 5 2 2 1 0 2 3 3 3 3 2 2 2 2 2 3 3 4 4 4 4 4 4 4 4 5 5 5 6 6 5 5 4 4 4 4 4 3 3 3
5 3 5 5 4 2 1 1 2 3 4 4 4 3 3 2 2 3 3 3 3 3 3 4 5 5 4 4 4 4 4 4 5 5 5 5 5 4 4 3 3 3 3 3
4 4 6 7 5 3 3 3 5 5 4 4 3 3 2 2 2 2 3 3 3 2 2 3 4 4 4 4 4 3 3 3 4 4 4 4 4 4 3 3 1 2 2 2
6 7 7 6 3 4 4 5 6 5 4 3 2 2 1 2 3 3 2 3 3 2 2 3 3 4 4 4 3 2 2 2 3 4 4 4 3 3 3 3 3 4 3 5
Wind_Direction
200 222 223 222 249 284 284 288 305 355 149 235 243 242 191 191 199 194 191 190 190 191 183 180 182 182 181 182 183 186 187 177 182 183 191 183 180 185 178 173 160 178 175 159
208 223 225 228 237 246 251 266 278 297 179 264 275 258 205 198 204 202 198 196 196 190 182 183 186 188 188 187 188 189 192 188 190 182 192 191 188 189 179 176 163 191 187 193
221 216 208 224 229 241 248 264 280 289 266 231 262 230 197 195 203 204 207 204 199 194 188 185 189 190 191 193 195 194 194 193 196 190 189 182 182 199 186 187 185 192 193 196
228 219 211 224 229 242 249 259 269 260 260 259 258 274 188 189 199 206 208 206 203 197 193 189 189 191 193 194 192 195 192 195 196 197 201 201 197 197 199 200 187 188 194 204
219 216 219 228 233 241 262 258 254 256 261 266 248 268 212 182 205 209 209 207 204 197 194 192 193 192 193 192 191 191 189 193 196 201 201 209 209 205 201 196 181 205 202 212
230 218 226 234 231 222 207 221 230 238 248 251 255 261 254 201 224 214 204 202 201 196 193 191 190 189 192 191 193 191 188 194 197 202 205 211 211 214 214 213 203 210 201 208
215 212 210 215 211 199 216 234 235 232 232 241 229 254 265 293 253 229 203 192 190 190 190 188 188 189 192 193 194 192 190 196 199 203 207 210 212 213 217 224 214 229 221 212
212 210 201 206 220 220 223 236 248 256 252 243 213 245 250 284 254 216 199 183 180 184 188 189 189 191 193 196 197 196 193 196 198 201 204 208 211 215 214 216 228 220 234 232
220 216 191 207 222 233 225 235 255 262 264 263 241 241 242 225 200 184 175 169 174 180 183 186 188 191 193 197 198 198 194 197 199 200 201 204 209 217 217 209 220 224 225 224
235 227 201 195 207 220 245 237 237 245 252 254 243 244 256 228 202 182 173 173 174 175 177 179 183 189 192 194 195 198 196 198 199 200 204 201 203 207 210 216 220 227 226 229
234 228 205 197 215 212 211 218 233 245 254 260 256 247 41 215 202 181 172 175 175 176 175 176 181 185 187 190 191 193 195 198 200 201 202 204 202 202 204 208 215 218 225 223
221 231 222 214 214 240 224 227 227 237 242 255 268 262 102 157 192 187 167 166 172 176 176 175 176 178 183 189 192 193 196 199 201 200 199 202 204 206 208 206 208 209 213 216
206 227 221 210 201 206 223 227 233 244 250 250 254 246 125 130 165 159 164 170 169 175 178 179 179 181 186 192 197 197 199 201 199 195 196 197 200 202 206 207 203 202 207 211
220 230 233 233 226 212 221 227 231 238 244 247 251 261 248 251 241 205 178 177 169 174 183 189 187 187 191 194 196 198 200 199 195 192 195 198 203 205 205 203 203 203 204 206
224 230 234 246 247 237 232 231 227 234 248 256 257 258 265 265 252 230 198 184 183 185 189 197 197 192 193 192 193 198 200 197 196 193 196 201 204 204 205 203 204 202 202 205
225 235 231 235 234 234 238 236 232 235 244 250 255 261 276 257 235 215 202 198 202 201 199 199 198 192 193 194 194 192 194 193 193 195 199 199 200 200 202 202 198 196 200 204
221 226 232 232 225 231 234 232 232 234 241 249 253 261 260 249 233 229 225 215 214 212 210 207 205 200 202 204 198 193 192 190 190 193 195 195 198 200 201 196 189 192 195 196
229 231 233 235 222 232 231 220 233 237 242 251 257 262 247 249 236 236 237 225 218 221 219 215 212 204 203 202 195 187 182 183 185 185 188 191 194 194 190 186 187 190 196 202
224 223 232 232 230 232 221 213 223 233 241 252 251 251 248 246 239 223 223 231 230 225 215 212 216 207 194 187 181 176 173 172 176 180 183 183 182 180 176 178 183 188 193 201
203 219 230 230 237 237 223 195 218 231 237 244 245 244 248 249 248 239 200 215 231 217 191 191 190 177 170 169 166 171 171 169 174 176 179 177 175 171 173 175 181 181 184 194
195 209 225 231 235 235 222 191 195 225 247 327 261 243 240 253 281 317 164 182 186 146 142 151 155 152 152 155 155 158 157 161 161 158 164 166 167 166 166 166 168 169 170 173
210 212 216 227 232 226 94 177 214 273 344 309 275 254 251 276 266 140 147 157 143 126 126 134 134 129 127 137 142 139 141 145 147 157 163 164 165 166 159 156 158 162 166 170
223 238 235 234 233 82 119 183 342 325 312 299 284 283 254 241 210 177 158 143 124 121 120 120 121 120 117 120 129 134 134 144 153 155 159 160 157 158 155 158 161 167 174 185
211 247 244 241 221 205 223 254 306 309 300 295 280 264 246 231 211 175 149 129 119 116 118 120 124 118 107 103 105 113 123 141 147 154 160 162 160 157 152 163 173 183 187 194
248 230 234 240 246 254 245 280 303 305 301 295 279 256 240 216 189 160 141 125 117 106 107 115 117 113 105 98 95 99 116 135 146 153 163 167 161 152 150 154 165 181 161 171
233 237 240 246 244 270 279 305 302 295 291 288 285 282 243 199 164 145 134 126 123 114 109 112 113 111 110 108 98 90 106 136 156 161 169 170 165 162 168 161 141 78 97 95
Height
1504 1502 1499 1498 1498 1499 1500 1501 1503 1501 1500 1502 1503 1503 1505 1510 1512 1515 1518 1520 1523 1525 1528 1531 1533 1535 1537 1538 1539 1541 1542 1543 1544 1545 1546 1547 1548 1548 1549 1549 1549 1549 1549 1549
1501 1499 1495 1496 1498 1499 1500 1503 1501 1500 1499 1502 1501 1501 1501 1506 1509 1512 1515 1517 1520 1523 1526 1529 1532 1534 1535 1537 1538 1539 1541 1542 1543 1544 1545 1546 1547 1548 1548 1548 1548 1548 1548 1549
1497 1494 1495 1497 1498 1500 1498 1500 1500 1502 1500 1498 1501 1501 1500 1502 1506 1510 1512 1514 1517 1520 1523 1527 1529 1532 1534 1535 1537 1539 1539 1541 1542 1543 1545 1546 1546 1547 1548 1548 1548 1548 1548 1548
1493 1492 1496 1497 1497 1497 1499 1494 1497 1499 1501 1500 1500 1507 1498 1497 1501 1505 1508 1511 1514 1517 1520 1523 1526 1529 1531 1533 1535 1537 1538 1539 1541 1542 1544 1545 1545 1546 1546 1547 1547 1548 1548 1548
1491 1492 1495 1496 1494 1494 1494 1494 1495 1497 1499 1500 1497 1502 1496 1493 1497 1499 1503 1506 1510 1514 1517 1520 1523 1526 1529 1531 1533 1534 1536 1537 1539 1540 1541 1543 1544 1545 1546 1546 1546 1546 1547 1547
1488 1490 1491 1491 1491 1493 1495 1496 1496 1495 1494 1508 1500 1503 1500 1489 1492 1493 1497 1502 1506 1510 1514 1517 1521 1524 1527 1529 1531 1533 1533 1535 1537 1538 1540 1540 1542 1543 1544 1544 1545 1545 1546 1546
1492 1490 1489 1490 1492 1493 1494 1499 1507 1510 1508 1505 1495 1499 1496 1486 1488 1490 1493 1498 1502 1507 1510 1514 1517 1520 1523 1526 1528 1530 1531 1533 1535 1536 1537 1538 1539 1540 1541 1542 1543 1544 1545 1544
1494 1494 1487 1487 1489 1491 1492 1493 1507 1516 1511 1500 1497 1498 1489 1485 1488 1491 1493 1496 1500 1504 1507 1511 1514 1517 1520 1523 1525 1528 1529 1530 1532 1534 1535 1536 1537 1539 1540 1540 1541 1542 1543 1543
1486 1489 1482 1485 1486 1487 1490 1490 1485 1493 1496 1502 1495 1490 1485 1484 1487 1489 1492 1495 1498 1501 1505 1508 1511 1514 1517 1519 1522 1524 1526 1528 1529 1531 1532 1533 1535 1536 1537 1538 1538 1540 1540 1540
1480 1489 1482 1484 1486 1487 1485 1484 1489 1494 1509 1510 1500 1494 1489 1486 1485 1487 1490 1493 1497 1500 1503 1506 1509 1512 1514 1517 1519 1521 1523 1525 1526 1528 1530 1531 1532 1533 1534 1535 1536 1537 1537 1537
1480 1487 1485 1485 1487 1486 1489 1489 1488 1489 1491 1503 1505 1495 1478 1481 1483 1485 1489 1492 1495 1498 1501 1503 1506 1509 1512 1514 1516 1518 1520 1522 1523 1525 1527 1528 1529 1530 1531 1532 1533 1534 1534 1534
1481 1481 1485 1482 1479 1479 1481 1483 1486 1495 1498 1494 1495 1493 1477 1480 1482 1485 1488 1492 1494 1497 1499 1502 1504 1507 1509 1512 1514 1515 1517 1518 1520 1522 1523 1525 1526 1528 1529 1529 1530 1530 1531 1531
1482 1483 1492 1489 1487 1484 1482 1480 1480 1482 1487 1490 1494 1492 1477 1480 1483 1486 1489 1491 1493 1495 1497 1500 1502 1504 1506 1509 1510 1512 1514 1515 1517 1519 1520 1522 1523 1524 1525 1526 1527 1528 1528 1528
1484 1480 1484 1487 1481 1477 1482 1481 1480 1482 1486 1488 1486 1483 1478 1480 1483 1486 1489 1491 1492 1494 1496 1498 1500 1502 1504 1505 1507 1509 1511 1513 1514 1516 1517 1518 1520 1521 1522 1523 1524 1525 1525 1525
1481 1480 1478 1474 1471 1472 1475 1477 1478 1481 1479 1482 1479 1479 1477 1479 1482 1485 1488 1490 1492 1493 1495 1496 1498 1499 1500 1502 1504 1505 1507 1509 1511 1513 1514 1515 1517 1518 1519 1520 1521 1521 1522 1522
1480 1480 1479 1478 1473 1473 1476 1473 1474 1475 1476 1475 1475 1476 1475 1479 1482 1485 1487 1489 1490 1492 1493 1494 1495 1497 1497 1499 1500 1502 1503 1505 1507 1509 1511 1512 1514 1515 1516 1517 1517 1518 1519 1519
1479 1481 1482 1478 1474 1476 1480 1472 1471 1473 1472 1474 1477 1476 1476 1479 1481 1484 1485 1487 1488 1490 1491 1492 1493 1494 1495 1496 1497 1498 1500 1502 1504 1506 1508 1509 1511 1512 1513 1514 1514 1515 1515 1516
1482 1482 1478 1475 1480 1490 1471 1465 1467 1470 1472 1472 1473 1474 1476 1479 1481 1483 1485 1485 1486 1487 1488 1489 1491 1491 1492 1493 1495 1496 1497 1499 1501 1502 1504 1505 1507 1508 1509 1510 1511 1512 1512 1513
1479 1481 1478 1476 1478 1475 1469 1467 1468 1471 1473 1472 1473 1475 1477 1478 1479 1481 1483 1484 1484 1485 1485 1486 1488 1489 1489 1490 1491 1492 1493 1495 1497 1499 1500 1501 1502 1504 1505 1506 1507 1508 1509 1510
1479 1480 1478 1476 1479 1478 1467 1465 1469 1472 1475 1471 1473 1475 1476 1477 1475 1476 1480 1482 1482 1483 1483 1484 1485 1486 1486 1487 1488 1489 1491 1493 1494 1496 1497 1498 1499 1500 1502 1503 1504 1506 1507 1507
1477 1479 1476 1474 1474 1465 1464 1466 1470 1478 1474 1473 1474 1475 1476 1477 1476 1478 1478 1479 1480 1480 1480 1481 1482 1483 1484 1484 1485 1487 1488 1490 1492 1494 1495 1496 1497 1498 1500 1501 1502 1503 1504 1505
1469 1469 1473 1471 1473 1470 1467 1467 1469 1472 1473 1474 1474 1475 1476 1476 1476 1477 1477 1478 1478 1479 1479 1479 1480 1481 1482 1483 1484 1485 1486 1488 1490 1492 1493 1494 1495 1497 1498 1499 1500 1501 1502 1502
1466 1465 1462 1465 1467 1469 1470 1471 1473 1474 1474 1474 1474 1474 1475 1475 1476 1476 1477 1477 1477 1478 1478 1479 1479 1480 1481 1482 1483 1484 1485 1487 1489 1490 1491 1492 1493 1495 1496 1497 1498 1499 1499 1501
1467 1470 1468 1468 1466 1469 1471 1472 1473 1473 1473 1473 1473 1473 1473 1474 1474 1475 1475 1476 1476 1477 1478 1478 1479 1480 1481 1482 1483 1484 1485 1486 1487 1488 1490 1491 1492 1493 1494 1495 1496 1497 1498 1498
1467 1469 1467 1468 1468 1470 1470 1472 1472 1472 1472 1471 1472 1472 1472 1472 1473 1474 1474 1475 1476 1476 1477 1478 1478 1479 1480 1482 1482 1484 1485 1485 1486 1487 1488 1490 1490 1491 1492 1493 1494 1495 1495 1496
1467 1468 1467 1465 1468 1470 1470 1471 1471 1470 1470 1470 1470 1470 1471 1471 1472 1473 1474 1474 1475 1476 1477 1477 1478 1479 1480 1481 1482 1483 1483 1484 1485 1486 1487 1488 1489 1490 1491 1491 1492 1492 1493 1493